Terminal Aerodrome Forecast
Issued by NWS Raleigh/Durham, NC

Home | Current Version | Previous Version | Text Only | Print | Product List | Glossary On
Versions: 1 2 3 4 5 6 7 8 9 10 11 12 13 14 15 16 17 18 19 20 21 22 23 24 25 26 27 28 29 30 31 32 33 34 35 36 37 38 39
000
FTUS42 KRAH 012340
TAFFAY
TAF
KFAY 012340Z 0200/0224 VRB02KT 6SM BR OVC004
     FM020400 23004KT 2SM BR OVC002
      TEMPO 0205/0209 3/4SM BR VV002
     FM021330 33007KT P6SM SCT020 BKN250=

USA.gov is the U.S. government's official web portal to all federal, state and local government web resources and services.